Weather in Neverovskoye

Russia / Kurgan Oblast     54°48′24″N   66°50′03″E
temp.,
°C
wind,
m/s
gust,
m/s
humid.,
%
clouds,
%
prec.,
mm/h
press.,
hPa
HPBL,
m
21 april, wed
wed2123:00+1wsw49585 0.0 1028147
02:00+1w511605 0.0 1027199
05:000wnw48690 0.0 1028138
08:00+4nnw47595 0.0 1029308
11:00+8nnw46535 0.0 10301045
14:00+11n574586 0.0 10301840
17:00+11n564478 0.0 10311725
20:00+8n335968 0.0 103336
22 april, thu
thu2223:00+6e366569 0.0 1035123
02:00+3ese47655 0.0 1036129
05:00+2se36715 0.0 1038105
08:00+4se57595 0.0 1040329
11:00+8se66455 0.0 1040864
14:00+11sse55405 0.0 10401360
17:00+11sse453765 0.0 10391493
20:00+8ese5945100 0.0 1039202
23 april, fri
fri2323:00+6se51247100 0.0 1039279
02:00+5sse41163100 0.0 1038239
05:00+4s51159100 0.0 1039258
08:00+6sse61052100 0.0 1039360
11:00+9s6839100 0.0 1038723
14:00+11sse6733100 0.0 10371146
17:00+12s6730100 0.0 10361538
20:00+8sse41043100 0.0 1036213
24 april, sat
sat2423:00+7sse51247100 0.0 1034274
02:00+5sse41053100 0.0 1033224
05:00+4sse4955100 0.0 1032198
08:00+6sse51051100 0.0 1031342
11:00+9sse6941100 0.0 1030576
14:00+9sse5739100 0.0 1029877
17:00+11s6837100 0.0 10271282
20:00+8se51146100 0.0 1026412
25 april, sun
sun2523:00+7se51050100 0.0 1025230
02:00+6sse5135799 0.0 1023347
05:00+5ese511689 0.1 1020289
08:00+8se7135076 0.0 1018488
11:00+13sse8933100 0.0 10161175
14:00+13ssw9946100 0.0 10151697
17:00+10sw6873100 0.3 1016944
20:00+9sw497662 0.8 1016604